Location: Bucquoy
(50.1391°N, 2.7097°E)
Time: 06:26:16
(UTC+00:00)

Cosmos 1461 - Pass Details

Date: 27 September 2021
Orbit: 520 x 642 km, 65.0° (Epoch: 20 October)

Event Time Altitude Azimuth Distance (km) Brightness Sun altitude
Rises 18:07:14 0° 312° (NW) 2,706 7.3 -5.8°
Reaches altitude 10° 18:09:44 10° 298° (WNW) 1,793 6.7 -6.2°
Maximum altitude 18:13:00 25° 244° (WSW) 1,104 5.2 -6.8°
Drops below altitude 10° 18:16:13 10° 188° (S) 1,753 5.4 -7.3°
Sets 18:18:38 0° 175° (S) 2,632 6.2 -7.7°
